Terminal Aerodrome Forecast
Issued by NWS Cheyenne, WY

Home | Current Version | Previous Version | Text Only | Print | Product List | Glossary On
Versions: 1 2 3 4 5 6 7 8 9 10 11 12 13 14 15 16 17 18 19 20 21 22 23 24 25 26 27 28 29 30 31 32 33 34 35 36 37 38 39 40 41 42 43 44 45 46
000
FTUS45 KCYS 252320
TAFCYS
TAF
KCYS 252320Z 2600/2624 03015G25KT 3/4SM -SN BR OVC015
      TEMPO 2600/2602 1/4SM SN FZFG OVC009
     FM260200 03010KT 1SM -SN BR OVC008
     FM260800 03008KT 1/2SM -SN FZFG OVC005
     FM261500 05007KT 3SM BR OVC015
     FM261800 03010KT P6SM OVC025=

USA.gov is the U.S. government's official web portal to all federal, state and local government web resources and services.